Theta_e
277 277 277 277 277 276 277 277 277 276 276 276 276 276 275 274 271 270 271 273 273 275 276 276 276 277 277 276 278 276 276 278 279 277 276 276 276 279 283 284 285 286 287 287 287 287 287 288 288 289 290 290 291 292 292 293 293 294 295 296 297 298 299 300 300 301 301 301 302 303 303 304 305 305
277 277 276 276 276 276 276 276 276 276 276 276 276 275 276 275 273 272 271 272 274 273 276 276 276 277 275 276 276 276 275 279 278 277 276 276 276 281 282 282 284 285 285 285 286 286 287 287 288 288 289 289 290 292 292 292 293 294 295 296 297 298 298 299 299 299 299 301 301 302 302 303 304 304
276 276 276 276 275 276 275 275 276 276 276 275 275 275 275 275 275 273 273 270 274 275 274 275 276 275 275 275 274 276 275 277 277 276 276 276 279 280 278 280 282 283 284 284 285 286 286 287 287 288 288 290 290 291 291 292 292 293 294 295 296 297 298 298 297 298 298 299 300 301 301 302 303 304
276 276 275 275 275 275 275 275 275 275 276 275 275 275 275 274 274 274 273 271 271 275 274 274 275 276 274 274 274 274 275 276 277 275 275 275 278 276 275 278 280 281 283 284 285 285 286 286 287 288 288 289 290 290 291 291 291 292 293 294 295 296 296 296 297 297 297 298 299 300 300 301 301 302
275 275 275 275 275 275 274 274 274 274 274 275 275 274 274 273 273 273 272 270 270 273 275 274 274 274 274 273 274 273 273 274 274 276 275 275 274 275 275 275 278 280 282 283 284 285 286 287 287 288 288 288 289 289 289 290 290 291 292 293 293 294 295 296 296 296 296 297 298 299 299 300 301 301
275 275 274 274 274 274 274 274 273 273 273 273 273 273 273 272 272 273 271 271 270 269 272 272 273 273 274 271 273 272 273 273 274 274 274 275 275 275 275 275 276 279 281 283 284 285 286 287 287 287 287 288 289 289 290 290 290 290 291 291 291 292 293 294 294 294 294 296 297 298 298 299 300 300
275 274 274 274 273 273 273 273 272 273 272 272 272 271 272 271 271 272 272 270 269 269 269 271 271 272 273 272 272 273 273 274 274 273 274 274 275 276 276 275 276 279 282 283 284 285 286 286 287 287 287 287 288 288 289 289 289 289 290 290 290 290 291 292 292 293 294 295 297 297 297 298 299 300
274 274 273 273 273 272 272 271 271 272 271 271 271 271 271 271 271 271 271 271 269 269 268 270 271 272 272 272 273 274 274 273 273 274 275 275 275 275 276 275 275 277 281 283 283 284 285 285 286 286 286 287 287 287 288 288 288 289 289 289 289 289 290 290 291 291 292 294 295 295 296 297 297 298
274 273 273 272 272 272 271 271 270 271 270 271 270 270 270 270 271 271 271 270 270 269 268 269 271 272 273 273 273 274 273 274 274 274 274 275 275 275 275 276 277 279 282 282 282 283 283 284 285 285 286 286 286 287 287 288 288 288 288 288 288 289 289 290 290 290 291 291 292 293 295 296 296 297
273 273 272 272 271 271 270 270 270 270 270 270 270 270 270 270 270 270 270 270 270 270 269 270 270 272 272 272 273 274 274 273 273 274 275 275 275 274 275 276 277 278 277 277 278 280 280 281 283 284 285 286 286 286 287 287 287 287 286 287 287 288 289 289 290 290 290 291 291 292 293 295 296 296
272 272 271 271 271 271 270 270 270 270 270 270 270 270 270 270 270 270 270 270 270 270 270 270 271 271 273 273 272 273 275 275 274 273 274 274 275 276 276 276 277 277 277 279 281 281 281 282 281 282 284 285 285 285 286 286 286 285 285 286 286 286 287 288 288 289 290 290 291 291 291 292 293 294
272 271 271 271 271 271 271 270 270 270 270 270 270 270 270 270 270 270 270 270 270 270 270 270 271 272 272 273 274 275 275 274 275 276 274 272 273 275 276 276 275 276 277 276 276 279 280 280 280 282 282 283 283 284 283 283 283 282 283 284 286 286 287 287 288 288 288 289 290 291 291 290 290 292
271 270 270 271 271 271 273 274 273 273 273 270 269 270 271 271 271 271 271 270 270 270 271 271 273 272 272 273 273 273 274 274 273 275 275 274 274 274 274 275 276 276 276 276 276 276 276 276 276 276 276 277 279 279 281 282 282 282 283 284 285 286 287 287 288 288 289 289 289 290 290 290 290 290
270 270 270 271 273 274 275 275 275 276 276 275 272 272 272 272 272 271 271 270 271 271 271 271 272 271 272 273 274 274 274 275 275 274 274 272 273 274 274 275 276 277 276 275 274 275 277 276 276 276 276 277 278 278 278 278 279 281 284 285 286 286 287 287 288 288 288 288 288 289 289 289 290 290
270 270 270 271 273 274 275 275 277 277 277 277 277 276 276 276 274 272 272 272 273 272 272 273 273 272 272 274 274 274 274 275 274 273 273 273 273 272 271 270 274 278 276 275 275 275 277 276 275 276 276 277 277 277 277 281 282 284 285 286 286 286 287 287 287 287 288 288 288 289 289 289 290 290
270 270 270 271 273 274 274 274 275 277 278 278 279 279 279 279 280 279 276 274 273 273 272 273 273 273 273 273 274 274 274 273 273 274 274 273 273 273 272 272 271 276 278 276 274 273 277 277 276 275 276 277 277 277 280 283 284 285 285 286 286 286 286 287 287 287 288 288 288 288 289 289 290 290
271 271 271 272 273 274 276 276 275 275 276 278 279 278 278 278 279 279 280 280 277 276 274 273 273 273 273 272 273 274 273 275 273 274 273 274 274 274 273 273 274 275 277 274 272 271 273 275 274 274 276 277 277 278 281 283 284 284 285 285 286 286 286 286 287 287 288 288 288 288 289 289 289 290
273 273 273 273 273 274 275 275 274 274 273 273 273 273 273 273 275 277 278 278 278 278 275 274 272 274 274 273 274 275 276 274 274 274 273 274 274 274 273 273 273 273 275 271 270 269 270 273 273 273 274 276 276 277 279 283 284 284 285 285 286 286 286 287 287 287 287 288 288 288 289 289 289 290
274 274 274 274 273 273 274 274 274 273 272 272 271 270 271 272 273 274 274 274 274 274 274 274 274 274 275 275 275 276 277 276 276 276 275 274 272 272 272 271 271 271 273 272 270 266 269 272 271 272 273 275 275 276 279 282 283 284 284 285 285 286 286 287 287 287 287 288 288 288 288 289 289 289
274 275 275 274 273 273 273 275 276 275 273 272 271 271 272 273 274 274 276 277 278 277 276 276 276 277 278 279 278 278 278 278 278 276 273 272 270 268 266 266 268 269 272 273 270 268 269 272 271 271 274 275 274 276 276 280 283 284 284 285 285 286 286 286 287 287 287 287 288 288 289 289 289 289
274 275 274 274 272 273 272 275 277 278 276 273 272 272 272 273 272 273 275 277 279 279 280 280 280 280 280 280 280 280 280 278 276 272 268 266 268 266 265 265 266 267 270 271 272 270 268 271 272 272 274 274 275 275 276 277 281 283 284 284 285 285 286 286 286 287 287 287 288 288 288 289 289 288
274 275 276 274 273 272 272 276 277 278 277 274 273 273 272 272 271 272 274 276 276 277 278 278 277 278 278 278 278 277 276 277 275 269 266 267 268 265 265 264 265 267 268 270 272 269 270 271 272 270 271 272 272 273 275 276 277 280 282 283 284 285 285 286 286 286 287 287 288 288 288 288 288 286
273 273 275 275 274 273 274 277 277 278 277 274 274 273 272 271 271 273 274 273 272 271 271 272 273 273 272 271 270 270 273 273 272 269 268 267 265 264 265 265 265 264 266 271 273 268 268 269 270 270 267 266 270 272 272 273 274 276 277 278 278 281 283 284 285 285 286 287 287 288 288 288 288 286
272 272 273 275 277 276 276 277 278 278 278 275 274 274 272 272 271 274 272 271 271 272 272 271 271 269 269 268 267 267 267 268 268 269 269 268 267 266 265 266 266 264 266 270 273 269 269 270 268 271 269 266 264 269 271 270 272 273 275 275 275 279 281 282 282 285 285 286 286 286 286 286 286 283
271 271 272 273 277 278 278 278 278 278 278 277 275 274 273 273 274 274 272 272 272 268 268 268 267 266 265 265 265 265 266 267 268 268 269 269 269 268 267 267 267 267 268 271 274 270 267 269 267 269 268 268 268 267 268 270 271 271 273 274 274 276 277 277 279 278 281 282 284 285 285 286 286 284
271 271 271 271 275 278 279 278 278 277 277 277 276 275 276 276 276 274 271 266 266 265 263 262 262 261 261 262 262 264 265 266 267 268 268 269 270 270 270 268 266 265 266 270 274 270 268 267 268 267 267 266 266 268 266 267 269 271 272 272 274 275 276 276 277 277 278 278 278 281 281 284 286 287
271 272 272 273 276 277 277 277 277 277 277 277 276 276 276 275 275 272 265 265 262 260 260 259 259 260 260 261 262 263 265 266 267 268 269 269 269 269 269 270 269 268 269 270 271 271 269 268 269 268 266 267 266 266 266 265 266 270 270 271 272 274 276 277 276 277 277 278 278 283 284 285 286 287
272 272 272 273 276 276 276 276 276 277 277 275 274 274 274 274 271 264 262 259 258 259 258 258 259 259 261 262 262 264 265 266 267 268 268 268 268 268 269 269 269 270 270 270 271 271 270 269 268 269 269 267 265 264 264 267 268 268 268 270 272 273 274 276 276 277 278 278 278 279 279 279 281 282
273 274 275 276 276 275 275 276 276 274 273 273 272 272 272 269 262 259 256 257 256 256 257 258 259 260 261 263 264 266 266 267 267 267 267 267 268 268 268 268 269 269 270 271 271 271 270 270 269 269 269 268 267 266 266 265 266 267 268 268 268 271 274 277 277 277 277 278 278 278 279 279 280 282
276 276 276 276 275 275 274 270 268 266 267 270 271 270 268 261 259 257 256 256 256 256 258 260 260 261 262 263 265 265 266 265 264 265 264 264 264 265 265 266 267 268 269 270 271 271 271 270 270 269 268 268 268 266 267 266 265 267 268 268 268 270 271 273 276 277 277 277 278 278 280 281 281 283
274 275 274 273 274 271 272 271 270 269 268 263 262 261 261 259 258 257 256 257 258 260 261 261 261 261 262 263 263 263 263 262 263 265 264 264 264 265 265 265 265 266 267 269 270 270 270 270 270 269 267 266 267 267 267 267 265 266 267 268 268 265 269 272 274 277 278 278 279 279 279 280 281 283
272 272 273 271 267 265 263 262 260 260 259 259 259 259 258 258 258 261 264 264 263 262 261 260 260 260 261 260 261 261 262 262 263 264 264 264 264 265 265 264 264 265 266 267 268 269 270 270 269 269 269 267 265 266 267 267 266 266 266 267 268 268 270 270 271 274 275 276 277 278 279 280 280 281
267 265 263 262 262 261 260 259 258 258 257 256 257 257 256 256 256 255 255 255 256 257 257 258 258 259 259 259 260 261 261 261 262 264 264 264 264 265 265 264 264 264 264 265 266 266 267 268 269 269 268 268 268 267 266 264 265 266 266 266 267 267 268 269 270 272 277 277 276 277 278 280 282 282
265 264 263 262 261 260 259 258 258 257 256 256 256 256 260 259 256 256 257 257 257 257 258 258 258 258 259 259 259 260 260 261 262 264 265 264 264 264 264 264 264 265 265 264 264 265 265 266 267 267 268 268 268 268 267 265 264 265 266 266 266 266 268 269 270 272 273 275 277 277 278 279 281 282
264 263 262 261 259 259 259 258 258 257 257 256 256 256 256 256 257 258 257 257 257 257 257 258 258 258 258 258 259 260 261 261 262 262 263 264 264 264 264 264 264 264 264 264 264 265 265 265 265 264 264 265 265 266 271 269 265 265 266 266 267 267 267 269 270 272 274 275 278 277 278 279 280 282
263 262 262 260 258 258 257 258 257 257 256 256 256 255 255 255 256 256 256 257 257 257 257 257 257 258 258 259 260 260 261 262 262 262 262 263 263 264 265 265 265 264 264 264 264 265 265 264 264 263 262 262 261 261 262 270 271 267 266 266 267 268 269 271 273 274 275 276 278 278 277 278 279 281
262 261 261 260 259 257 257 257 257 256 256 255 255 255 255 255 256 256 257 259 258 257 257 258 258 259 259 259 260 261 261 261 260 262 262 263 264 264 264 264 264 264 263 264 264 264 265 264 264 263 262 261 260 259 261 265 269 272 268 266 266 267 268 268 269 271 276 278 278 279 279 279 280 281
261 260 260 259 258 257 257 255 256 255 255 256 256 256 256 256 256 256 257 256 256 256 257 257 257 258 259 259 259 259 260 261 261 261 262 263 263 264 264 263 263 263 263 264 264 264 265 264 264 263 263 261 260 260 260 263 264 267 271 269 266 267 269 268 269 271 275 278 279 280 281 280 281 282
261 259 259 258 257 255 255 255 255 254 255 254 254 254 254 254 255 255 255 255 255 255 256 256 257 258 259 259 260 260 260 260 261 262 263 263 264 264 264 263 263 263 263 263 264 264 264 264 264 264 263 262 261 261 262 262 262 265 269 273 269 267 267 267 267 268 268 269 274 280 282 283 284 285
260 259 259 258 256 255 254 254 254 254 254 254 254 253 253 253 253 253 253 254 254 255 257 258 259 260 259 259 259 259 260 261 262 263 263 264 264 265 264 264 263 263 262 262 262 263 263 263 264 264 264 265 265 266 266 265 266 267 267 269 273 270 268 268 267 267 268 271 273 274 278 282 281 282
258 257 256 256 254 254 253 253 254 253 253 253 253 254 255 254 253 252 252 254 256 257 258 258 257 256 257 258 259 260 260 262 263 263 264 264 265 265 264 264 263 263 262 261 262 262 262 264 266 270 268 267 267 267 265 263 261 263 264 266 270 273 273 273 269 269 268 269 270 272 275 278 280 281
258 257 256 255 253 252 253 252 252 252 251 252 252 252 251 251 252 257 257 258 257 255 255 255 255 257 257 258 259 261 261 262 263 263 264 264 264 264 263 263 261 262 261 261 262 262 265 266 267 266 266 266 265 262 261 261 261 262 263 265 267 271 273 274 274 274 272 271 271 271 273 276 280 279
256 256 253 252 252 251 252 251 251 251 251 251 250 250 249 250 250 252 252 252 253 253 254 255 256 256 257 258 260 261 262 263 263 264 264 264 264 262 262 261 261 262 262 262 263 264 264 265 266 265 265 264 264 263 261 262 263 263 263 264 265 267 269 273 274 275 276 277 277 276 276 277 278 277
255 254 252 252 251 251 251 251 250 250 250 250 250 249 249 249 250 251 251 252 252 253 254 255 255 256 257 259 260 262 263 263 264 264 264 264 263 262 262 261 262 262 262 262 262 263 264 264 265 265 263 263 264 263 262 263 263 264 264 264 266 266 266 269 271 274 276 278 279 280 280 281 281 282
255 254 252 251 251 250 250 249 250 250 249 249 248 248 249 250 251 252 252 252 253 253 254 255 256 257 258 260 261 261 263 265 265 264 264 263 263 262 262 262 261 261 261 262 262 262 263 263 264 265 264 264 264 264 264 264 263 264 264 264 265 266 267 268 268 269 271 274 280 282 282 283 283 283
Wind_Speed
7 6 7 7 6 6 6 6 6 6 6 6 5 6 7 6 3 2 3 2 3 3 4 2 2 3 2 2 4 3 3 6 10 5 5 6 6 13 19 20 21 22 23 24 25 25 26 26 28 28 27 28 28 28 28 28 28 29 29 30 30 30 30 29 29 29 30 28 28 30 31 30 30 31
7 6 6 5 6 6 6 7 6 6 6 6 6 6 5 6 7 6 4 6 3 5 2 3 2 2 1 3 5 5 6 12 12 7 7 7 7 17 19 20 21 22 23 23 24 25 26 27 28 29 28 29 29 29 29 29 29 29 30 30 31 31 30 30 29 29 29 30 29 29 30 32 32 32
8 8 8 6 6 6 7 6 6 5 6 6 6 5 5 6 6 6 4 3 5 5 5 1 0 0 1 2 2 4 5 9 12 10 10 9 15 19 14 19 21 22 24 25 26 26 27 27 28 29 29 29 30 29 30 30 30 30 31 31 30 30 31 31 30 29 28 29 30 30 30 31 33 33
8 8 9 8 7 7 6 6 6 6 5 5 6 5 6 5 5 5 6 9 11 3 3 3 4 5 3 5 7 5 4 4 9 8 9 11 16 10 8 14 18 20 23 24 25 26 27 28 29 30 29 30 30 30 31 31 31 31 31 31 31 31 30 30 29 29 29 29 29 30 31 32 32 33
7 8 8 8 7 7 7 6 6 6 6 5 5 5 5 5 5 6 7 9 10 7 5 6 4 1 3 3 3 7 5 7 7 7 7 7 7 7 7 8 13 19 22 23 24 25 26 27 28 28 28 29 30 31 31 32 31 31 31 31 32 32 31 31 30 29 29 29 30 31 32 32 33 33
8 8 9 8 7 6 7 6 6 6 6 5 5 5 6 6 6 5 6 8 9 9 3 7 4 3 2 4 3 5 7 8 8 9 8 6 6 6 7 8 8 17 20 22 23 24 26 26 27 27 27 29 30 31 31 31 31 32 32 32 33 33 32 31 31 30 30 31 31 32 32 33 34 34
9 9 8 8 7 6 7 6 6 6 6 5 6 6 4 5 5 4 6 4 6 8 7 5 7 4 3 3 5 6 6 7 7 9 8 8 7 7 8 9 8 14 19 22 22 24 25 26 26 27 29 30 30 30 31 31 31 31 32 32 33 33 33 32 32 31 31 32 33 33 33 33 34 33
11 11 9 8 8 7 8 6 6 6 5 6 5 5 4 4 5 4 4 6 6 4 9 3 5 6 5 5 5 7 6 6 6 7 9 7 8 8 8 8 8 10 18 21 22 24 25 26 27 28 29 28 29 29 29 29 29 31 32 32 33 32 32 32 32 32 32 33 34 33 33 34 34 34
11 10 10 10 9 9 8 6 7 6 7 5 5 5 5 5 5 4 5 6 6 7 8 8 6 6 6 6 5 5 8 7 7 7 8 8 8 8 7 6 7 13 19 22 24 24 25 26 27 28 28 28 27 27 28 29 29 29 30 32 32 32 33 33 33 33 33 34 33 33 33 33 34 34
9 10 9 9 9 9 9 8 7 7 7 6 6 6 6 5 5 6 6 6 7 8 9 8 9 5 7 6 5 5 5 9 11 9 7 7 5 5 7 6 6 6 7 8 9 14 18 21 25 25 25 27 28 28 28 28 28 29 29 30 31 32 33 33 34 34 34 33 33 33 33 33 32 32
9 8 8 9 9 9 8 8 9 8 8 7 8 8 7 6 6 6 6 6 7 7 8 7 7 8 5 6 8 4 5 8 9 13 12 8 5 8 8 11 8 7 10 13 20 20 19 21 19 24 28 28 28 28 28 27 29 30 32 33 33 33 33 33 33 34 33 33 34 33 31 30 31 32
8 8 8 8 8 9 8 9 8 9 9 8 8 7 6 5 6 6 6 5 6 6 6 6 8 7 9 7 5 5 5 6 7 5 9 15 12 10 9 7 12 11 11 14 11 11 14 16 19 23 24 27 27 30 29 30 32 35 35 34 34 33 32 32 31 32 32 33 33 32 31 32 34 34
8 8 7 8 8 9 11 13 11 11 9 7 7 6 6 5 6 6 5 4 4 4 5 7 8 9 9 8 8 10 8 10 10 10 11 12 13 13 14 9 5 10 13 12 13 11 7 10 12 10 11 13 17 21 28 25 34 36 35 35 35 34 32 31 30 29 30 31 32 32 35 36 35 34
9 8 8 7 14 15 15 15 16 16 15 13 8 6 7 7 7 6 6 6 5 5 6 6 9 10 10 10 11 10 10 8 10 10 11 16 15 14 14 14 6 7 12 13 14 12 6 9 13 10 12 11 11 13 14 15 19 26 33 34 33 33 32 32 33 34 35 35 36 37 36 36 35 35
10 8 8 7 12 13 14 13 17 15 15 14 14 15 13 11 8 6 7 6 5 5 6 7 8 9 12 11 10 11 9 10 9 11 12 11 12 15 16 19 14 5 7 20 19 14 1 5 14 14 11 10 11 13 14 23 29 33 33 34 35 35 36 36 37 37 37 36 36 36 36 35 35 34
9 9 9 8 7 9 10 8 9 12 14 14 15 16 16 16 16 14 8 6 5 5 6 6 6 9 11 12 11 10 9 11 14 11 11 12 16 13 16 15 15 13 10 15 23 23 9 5 12 16 12 7 10 14 22 29 33 34 34 34 35 36 36 36 35 36 36 36 36 36 35 35 35 35
9 9 9 9 8 7 15 11 8 7 7 11 15 14 14 14 15 14 16 16 10 6 7 8 9 9 11 13 11 8 10 12 15 15 13 11 12 16 14 18 13 10 12 15 20 24 16 7 11 17 17 9 10 14 22 31 31 32 33 34 34 35 35 35 35 36 36 36 36 36 36 36 35 35
10 11 9 9 8 8 10 9 8 7 7 5 4 4 3 3 7 12 14 15 16 13 8 7 9 9 8 13 13 13 13 14 12 13 15 14 11 11 12 15 16 15 10 12 18 23 21 5 10 16 16 11 15 14 19 30 33 33 33 33 34 34 34 34 35 35 36 36 35 36 36 35 35 35
9 10 9 9 9 9 8 7 8 6 6 5 5 4 5 5 5 6 5 6 6 8 8 9 10 12 11 12 12 12 10 11 13 13 13 11 11 14 15 16 14 14 10 10 12 20 21 9 12 15 14 13 16 14 18 29 33 33 33 33 34 34 34 34 35 35 36 36 35 36 35 36 36 36
9 9 10 9 8 8 8 11 15 11 7 7 8 8 8 6 6 5 7 12 13 11 9 9 9 9 10 16 16 15 14 13 10 10 12 13 13 14 14 15 12 12 8 8 12 17 18 12 15 17 15 13 16 17 13 21 29 32 33 33 34 34 34 34 35 36 36 36 35 35 35 35 36 35
10 9 10 10 9 9 9 12 16 17 15 9 10 8 6 4 4 6 7 12 16 16 16 18 20 21 22 22 23 23 22 16 15 12 13 13 9 12 13 15 12 12 8 7 12 16 17 14 16 17 16 16 18 17 13 12 21 29 31 33 34 34 33 33 33 34 34 35 35 35 35 35 34 38
8 10 16 12 10 10 10 16 17 17 13 8 7 5 5 5 6 6 6 6 5 10 16 18 20 22 22 19 16 17 20 24 19 9 12 10 7 12 12 15 15 16 12 10 10 14 12 15 14 16 16 20 17 15 12 15 17 26 25 31 33 32 32 33 34 33 34 34 33 33 34 32 32 24
8 9 13 16 12 11 12 19 18 18 13 7 7 7 6 7 8 6 4 4 4 4 6 9 8 6 7 7 11 13 19 19 16 11 11 9 8 11 12 11 13 16 13 3 4 13 12 15 17 12 14 16 16 12 13 15 15 15 14 14 18 31 34 34 33 34 33 33 32 31 31 31 28 16
9 9 9 14 18 18 19 19 19 17 16 9 7 6 6 7 6 2 0 2 7 8 6 5 5 7 6 5 7 7 7 8 9 10 10 9 8 10 11 11 11 13 15 9 10 12 11 12 15 13 15 17 18 18 19 18 12 13 13 15 18 26 30 32 30 36 36 35 38 37 36 34 32 19
10 10 9 7 17 21 20 19 19 17 15 12 8 8 6 6 4 4 5 5 4 2 4 6 7 8 8 7 6 8 8 8 7 8 11 11 11 11 11 12 12 13 13 11 18 12 13 11 17 12 14 12 17 20 22 24 18 14 14 16 18 16 12 15 11 15 22 34 36 37 35 34 35 26
9 8 9 8 14 22 21 19 17 16 14 14 7 6 9 9 9 6 2 4 0 2 3 5 6 6 6 6 6 7 7 7 8 9 10 11 11 11 11 12 13 14 16 15 22 15 12 13 15 16 15 15 19 19 23 25 21 15 20 16 16 17 14 14 13 15 13 14 15 20 24 33 33 35
9 8 9 10 17 19 18 16 16 14 14 11 5 6 6 7 8 1 4 2 2 3 4 4 7 7 6 6 7 6 7 8 8 8 9 10 10 11 12 14 15 18 20 19 17 14 13 13 13 15 17 16 19 22 23 23 23 16 17 19 17 17 13 11 13 13 12 12 11 26 30 32 34 35
9 9 8 10 18 15 15 14 13 12 10 5 5 5 5 5 2 5 2 2 1 2 4 5 6 7 6 6 7 7 7 8 8 9 10 10 11 13 13 15 16 17 18 19 18 17 15 14 15 17 16 18 17 21 23 25 22 21 22 20 19 20 15 15 16 15 13 14 12 12 11 12 13 16
8 10 16 18 16 15 13 14 10 5 6 5 4 4 4 4 5 2 1 1 1 3 5 6 6 7 7 7 9 9 9 10 10 9 10 10 12 12 15 16 16 16 14 14 16 16 14 14 16 16 15 14 14 20 22 26 25 23 19 21 21 16 17 15 12 15 13 14 13 15 13 13 12 12
17 18 18 18 17 15 10 6 5 3 2 3 4 2 5 4 2 1 1 1 3 5 5 6 8 8 7 7 8 10 10 9 9 8 10 9 9 9 11 13 13 13 13 14 16 15 15 17 16 15 16 18 14 19 20 22 25 23 20 20 23 23 23 19 17 16 16 16 11 13 12 13 14 11
12 15 13 10 11 9 11 9 7 6 5 4 3 3 2 1 1 2 3 3 4 5 6 7 7 6 7 7 8 8 7 9 9 8 10 10 10 10 10 12 15 14 10 11 13 14 14 14 18 21 18 19 17 17 17 18 21 23 22 20 20 20 19 14 18 15 11 12 12 15 13 14 13 14
11 10 12 12 8 7 7 5 4 3 3 2 2 1 1 1 3 4 6 7 5 5 4 6 6 6 6 7 8 8 8 9 9 8 9 10 12 12 10 12 14 13 13 10 10 13 15 16 16 15 17 17 20 17 15 15 18 18 22 21 21 24 23 21 18 16 18 20 15 16 13 14 13 13
10 9 7 7 7 7 7 5 4 3 2 1 1 1 1 1 1 2 2 4 6 6 4 6 6 7 6 8 7 8 9 9 9 8 9 10 10 12 10 13 13 13 14 18 14 9 10 12 14 18 17 17 19 19 18 18 20 16 17 19 20 22 23 20 21 21 14 13 15 16 15 16 14 15
11 9 8 7 7 7 7 6 5 5 4 4 2 1 1 1 1 3 4 5 6 5 5 6 5 7 7 8 8 8 9 10 9 9 11 12 10 12 12 13 13 13 12 15 16 14 13 12 11 14 15 17 19 19 18 19 22 17 18 21 20 21 22 18 20 22 20 19 16 14 14 16 14 13
10 10 9 8 7 7 7 6 7 7 6 4 3 2 1 2 4 6 4 5 5 6 5 5 6 6 7 8 8 8 9 10 12 10 9 9 10 11 11 13 14 14 13 14 14 14 12 13 12 12 13 13 16 17 20 20 18 19 16 17 18 20 21 18 19 20 20 19 14 16 16 14 12 13
9 8 8 8 9 8 8 8 5 5 7 5 4 3 3 4 5 6 5 4 4 5 5 5 7 7 7 8 8 8 9 11 11 10 10 9 10 11 11 13 13 14 14 14 13 13 12 14 12 15 18 17 15 19 16 15 23 17 17 17 15 17 19 18 19 19 19 17 14 15 16 17 15 14
9 8 8 8 8 10 11 9 7 8 6 6 5 4 4 4 3 3 4 5 5 5 6 6 6 7 7 8 9 9 9 10 11 11 10 10 10 11 12 14 12 12 13 14 12 14 11 13 12 13 15 19 20 22 24 8 18 25 19 20 20 15 17 19 20 22 16 14 16 18 18 14 14 13
9 8 8 7 8 8 6 8 7 4 4 3 4 3 4 4 4 4 4 4 5 5 6 6 7 8 8 8 9 9 9 8 9 11 11 11 10 12 12 12 14 14 15 16 13 11 11 13 14 14 13 17 20 22 24 21 10 11 17 20 20 18 15 17 19 20 17 16 17 17 13 17 16 15
8 8 8 7 8 9 9 8 8 7 4 5 4 4 4 4 4 4 4 5 4 5 6 7 8 8 8 8 8 9 10 11 11 11 10 11 10 13 12 14 16 16 15 17 14 12 11 13 12 12 13 15 19 20 20 22 26 15 15 28 23 20 18 17 19 20 20 19 19 17 16 16 17 21
7 7 7 7 7 9 9 7 7 6 7 6 5 4 4 4 4 4 5 6 5 6 7 8 9 8 7 8 9 9 10 11 12 12 11 13 13 13 12 13 15 16 15 18 17 15 14 13 13 13 15 17 19 19 20 22 23 22 20 24 33 30 23 17 19 17 17 17 14 16 17 16 15 13
7 8 7 6 9 10 10 8 7 5 6 5 4 4 4 4 4 5 4 5 6 7 7 7 7 7 8 8 8 9 11 11 10 10 11 12 14 14 15 16 16 14 16 18 19 16 16 13 17 30 28 20 20 19 18 18 20 22 20 20 19 28 33 30 25 20 19 18 16 17 17 16 17 15
8 8 6 6 10 9 8 8 6 6 5 4 4 4 3 4 5 8 7 9 7 7 8 8 7 7 8 8 9 10 10 11 11 12 13 12 12 13 15 14 14 15 16 18 19 17 17 15 18 17 14 15 14 15 18 17 22 23 21 20 18 18 26 31 36 34 26 19 16 17 17 16 14 17
8 8 11 9 7 9 8 7 6 5 4 4 4 4 4 4 3 4 5 6 7 7 7 7 7 7 8 8 9 9 10 11 11 12 13 11 11 12 15 13 15 15 17 17 17 17 18 16 15 14 14 12 13 14 19 19 20 22 22 22 21 17 15 22 29 33 36 39 37 29 20 15 11 13
8 8 10 10 8 7 7 6 6 4 4 4 4 4 3 3 3 5 5 7 7 7 7 7 7 8 9 9 9 9 9 10 11 13 12 12 13 13 13 15 16 15 16 15 17 17 15 14 14 14 14 15 12 15 17 20 20 19 20 20 19 18 20 15 13 21 27 33 38 39 45 44 35 31
7 8 11 9 8 7 7 6 5 5 4 4 4 3 3 3 4 5 6 7 7 8 7 7 8 8 9 9 9 10 10 13 14 12 11 12 13 13 13 13 16 17 17 16 17 19 17 13 13 12 13 13 13 15 19 19 21 21 21 21 23 20 18 16 15 16 16 15 22 33 37 37 38 39
Wind_Direction
166 165 175 170 163 162 151 150 151 153 148 154 161 168 175 177 190 264 274 265 251 285 192 181 309 113 120 35 357 6 353 340 342 331 324 317 317 321 326 328 327 325 325 325 322 319 318 316 316 314 313 312 309 308 305 302 300 298 296 294 293 293 292 292 292 291 289 288 289 290 290 287 286 286
165 165 168 167 163 162 154 158 156 152 155 157 168 173 177 175 196 208 240 273 209 272 245 198 217 161 5 17 0 2 342 338 335 324 317 315 311 322 327 326 324 323 322 319 317 314 312 312 312 311 309 308 306 303 302 300 298 296 294 293 292 292 290 290 290 291 290 289 286 286 286 286 285 282
166 171 174 170 166 165 158 153 150 150 151 157 163 174 171 196 194 210 232 271 249 206 245 298 158 158 358 23 354 353 337 326 323 321 316 315 317 323 323 322 321 321 319 317 315 314 311 309 308 308 305 304 303 301 300 299 297 295 294 292 291 290 289 289 289 288 288 288 287 284 283 283 283 281
174 171 174 178 171 168 154 153 151 151 153 155 167 172 184 194 197 196 215 239 246 221 254 285 302 318 357 353 332 318 305 290 299 298 304 307 314 318 313 314 312 311 310 309 309 309 309 308 308 307 304 303 301 299 297 297 295 294 292 291 290 290 290 289 288 287 287 286 285 284 282 281 279 280
173 178 175 178 176 164 157 156 151 153 157 161 168 176 181 201 201 193 221 241 273 265 262 276 275 272 24 318 301 298 301 303 295 285 281 283 290 296 296 297 297 299 300 301 301 301 303 302 301 300 299 299 298 298 297 296 294 292 292 292 291 290 290 290 289 288 287 287 286 284 282 281 280 277
180 176 173 176 171 168 154 154 160 157 162 168 173 188 187 208 209 209 208 249 263 284 262 285 273 266 249 261 256 276 297 294 295 295 294 287 280 287 290 290 290 289 293 296 295 298 300 297 296 295 296 297 296 295 295 294 293 293 292 291 290 289 289 289 289 288 286 284 282 280 279 278 277 276
173 173 177 176 167 161 156 163 160 157 169 170 182 194 193 207 218 211 221 236 260 273 277 276 291 260 227 236 274 268 263 270 276 286 291 296 294 287 286 286 287 286 290 292 292 294 296 293 293 293 295 295 293 293 293 294 295 294 292 291 291 290 289 287 286 284 282 279 276 276 278 278 276 274
177 178 171 177 169 164 160 164 162 171 167 176 179 189 203 206 216 220 220 232 254 280 291 232 275 287 281 260 252 269 267 267 269 275 288 281 283 281 275 276 279 277 281 287 288 290 290 289 292 292 292 291 293 295 294 295 295 294 293 290 290 288 287 284 281 280 278 279 278 277 276 275 276 274
176 176 180 171 169 166 161 168 172 171 176 175 175 192 200 205 213 220 221 234 240 258 263 283 269 274 274 265 261 261 295 296 288 286 283 289 288 280 264 266 262 269 279 283 285 286 285 285 289 290 293 294 293 293 292 292 293 292 292 291 289 286 283 280 278 277 275 274 273 273 273 274 273 274
179 178 174 173 170 170 170 175 168 173 176 174 183 193 200 199 210 215 228 232 238 247 262 276 293 272 295 294 278 294 291 302 305 299 294 292 283 283 295 278 280 279 273 282 274 272 276 278 280 284 290 291 289 290 289 289 287 287 287 287 288 286 283 280 276 274 273 271 271 269 269 272 274 274
177 175 172 172 173 172 170 169 174 173 176 182 191 195 195 206 207 224 232 235 244 250 268 276 276 288 274 283 299 271 278 290 294 307 316 310 303 298 298 302 295 287 282 271 277 281 282 282 284 287 288 287 286 286 286 284 283 285 286 285 285 284 282 279 276 273 271 270 268 267 270 272 273 275
176 175 173 174 175 173 173 174 175 175 180 177 192 193 192 203 218 230 237 238 245 258 268 277 295 297 299 291 265 267 270 294 305 302 315 312 316 309 301 299 308 304 290 290 283 266 274 277 272 274 276 278 278 280 281 280 281 281 282 280 279 278 277 276 274 272 269 266 265 266 268 272 274 272
174 173 175 176 177 177 180 183 183 186 181 176 181 191 188 206 219 230 230 229 242 261 270 287 297 297 300 300 312 320 325 324 318 318 316 304 309 309 308 296 271 282 292 289 280 278 261 266 267 258 259 260 264 267 270 273 274 277 276 277 277 275 273 272 272 271 272 272 272 271 272 275 274 271
178 177 174 179 183 185 189 192 194 195 195 192 185 187 194 202 214 220 227 237 239 252 277 282 297 300 298 308 312 311 311 312 313 312 317 311 313 310 302 303 297 296 293 290 284 280 261 267 270 261 264 268 261 264 264 261 268 273 275 274 275 272 271 270 270 271 270 271 271 271 270 270 269 268
176 175 175 174 188 188 192 196 199 198 197 201 202 204 210 209 207 208 226 239 249 262 264 282 286 286 294 301 308 307 314 314 314 311 308 304 306 309 311 313 316 152 323 309 301 295 208 222 285 279 262 265 264 262 259 263 269 277 277 277 275 273 271 270 271 270 270 269 268 267 266 266 266 265
171 169 171 179 184 190 189 186 197 201 204 209 215 221 229 237 244 246 241 249 255 259 272 278 279 296 296 303 306 306 314 312 308 303 301 300 303 300 302 294 300 314 332 313 308 297 304 299 281 282 276 260 258 260 270 272 280 280 277 276 275 273 271 269 268 268 267 268 267 266 266 265 265 264
168 168 171 174 181 187 189 188 187 189 207 217 220 227 233 240 245 253 259 262 266 278 282 283 287 286 297 298 296 300 302 304 303 303 301 300 296 293 286 293 302 315 334 315 296 293 299 319 283 286 290 287 268 270 275 280 282 283 281 277 275 273 271 269 269 268 269 268 267 267 266 265 264 263
170 172 168 168 172 176 184 182 174 179 194 203 225 238 253 263 259 262 269 274 278 279 281 292 289 292 285 284 290 292 297 299 296 303 298 301 298 304 299 306 302 301 311 296 295 293 293 329 296 289 292 296 283 273 277 284 285 284 282 279 276 274 271 269 267 268 268 267 266 265 265 263 264 263
162 164 165 168 167 169 171 170 164 165 174 184 205 217 226 234 239 248 261 269 270 268 267 268 268 272 273 275 281 289 291 290 293 295 306 325 316 304 302 295 292 294 293 283 282 279 291 323 296 286 286 288 279 273 276 279 281 282 280 279 277 275 273 270 269 269 269 268 267 266 265 265 264 264
165 167 166 165 165 162 163 178 186 186 178 188 198 208 215 220 230 239 260 266 266 265 260 258 261 268 277 287 291 297 300 301 312 321 319 315 311 307 300 292 301 289 296 279 277 280 291 309 296 291 285 277 276 278 273 273 277 282 279 277 277 276 273 272 271 270 269 268 267 266 266 265 264 263
170 169 169 167 161 167 168 181 191 191 189 192 198 198 196 211 244 253 249 265 273 275 281 285 289 291 293 294 295 296 304 311 315 319 309 298 308 301 300 294 295 285 294 273 277 281 288 296 292 291 292 299 295 293 288 280 278 278 279 277 277 274 272 270 270 270 270 269 268 267 266 264 263 263
170 173 173 165 164 170 171 185 193 197 196 179 174 176 208 217 235 249 250 255 270 286 288 289 288 288 288 293 305 313 309 302 304 300 287 296 309 288 285 289 293 295 288 279 270 275 279 303 304 304 300 294 279 279 285 294 290 285 279 279 278 276 274 273 271 270 271 269 268 267 266 265 261 260
161 167 174 176 174 174 182 189 195 195 191 170 181 187 201 225 233 233 248 275 287 291 282 275 275 291 306 314 303 299 300 298 296 286 280 289 280 278 279 279 292 294 286 238 292 293 296 300 292 300 301 290 286 281 281 285 289 292 291 284 280 276 275 273 271 270 269 267 268 268 271 272 269 262
169 168 176 187 184 183 187 191 191 192 191 178 178 192 201 215 214 217 191 258 264 266 268 283 290 288 294 300 301 282 281 280 271 273 269 271 270 270 274 275 269 267 279 289 304 290 292 285 285 295 288 295 300 305 299 291 275 282 280 279 276 271 271 270 269 268 268 270 270 270 270 270 270 270
169 172 177 177 191 190 189 189 191 191 196 189 182 197 198 193 221 240 231 248 300 359 304 298 297 295 294 290 290 284 277 275 272 269 275 270 270 269 271 276 276 273 275 285 299 290 293 300 290 292 282 274 279 292 292 291 287 286 282 280 280 275 266 259 250 255 258 262 264 265 265 265 265 263
166 168 176 176 197 198 193 192 190 189 189 195 180 196 215 237 244 250 96 104 111 299 316 297 290 287 284 280 275 275 275 272 269 271 269 273 273 276 278 284 288 290 288 294 296 291 290 289 290 295 289 290 288 287 291 289 288 289 286 277 273 272 267 265 255 253 248 248 252 255 256 260 262 260
163 162 175 179 191 190 187 189 188 187 188 196 195 184 219 225 245 272 95 93 52 322 301 292 280 277 270 275 273 272 275 272 271 267 270 273 273 271 269 267 268 274 281 288 287 282 280 277 281 279 285 285 289 291 285 285 292 295 282 283 281 275 271 261 258 252 250 247 245 255 258 261 262 261
162 165 166 170 182 183 187 186 186 189 194 158 163 199 210 238 85 81 61 65 340 286 273 271 270 270 265 266 270 268 271 279 275 277 278 276 270 270 271 270 267 266 271 275 278 279 277 278 278 276 273 278 282 283 287 286 280 285 290 289 282 281 273 257 256 254 254 252 255 248 250 251 249 254
156 161 161 168 174 180 184 187 179 140 119 130 170 202 221 84 81 88 100 195 179 244 253 255 262 265 264 263 271 276 283 284 284 277 275 270 269 269 270 270 267 265 265 266 269 268 267 270 275 275 274 265 265 273 277 280 289 286 287 290 286 280 277 262 250 257 250 250 245 248 242 245 247 243
159 161 166 171 179 184 169 127 95 89 143 172 183 148 73 81 97 120 158 194 210 237 247 253 259 264 272 274 277 283 286 285 279 281 278 277 270 266 271 275 272 261 250 254 260 266 266 273 271 274 276 273 264 270 273 281 281 280 282 279 283 287 273 272 270 254 256 255 251 249 246 242 244 239
162 166 170 175 159 136 138 132 125 117 103 74 58 68 81 117 167 194 182 205 229 243 246 252 259 266 276 280 285 281 279 278 274 277 278 277 277 279 275 273 277 277 254 236 250 264 267 271 277 278 274 276 273 260 268 271 273 278 277 274 278 274 279 276 269 270 268 260 249 248 245 247 244 239
156 148 149 140 119 111 79 86 62 69 99 103 99 96 137 177 211 237 256 259 252 258 259 266 268 272 273 274 273 278 274 270 274 271 273 279 286 286 284 282 279 280 280 261 240 246 256 265 268 269 269 272 276 276 265 260 263 271 276 276 274 273 273 275 275 264 253 255 257 254 251 244 240 235
118 118 117 128 135 132 134 128 137 124 108 102 148 155 181 214 241 238 221 238 250 245 247 252 260 269 270 274 273 277 279 275 275 277 280 278 278 284 277 274 280 288 294 296 292 265 251 250 253 259 264 265 264 267 272 274 265 260 266 272 272 268 269 263 264 268 271 254 246 249 249 243 235 236
138 149 153 160 157 153 153 162 169 167 164 162 155 179 253 236 226 245 242 240 244 249 250 257 267 271 276 276 278 278 278 286 281 281 286 289 287 287 288 285 283 284 283 289 291 293 288 274 264 260 253 254 255 251 255 262 270 267 262 269 266 267 268 266 266 265 262 257 255 252 245 239 234 229
152 159 165 165 156 165 163 175 171 144 158 159 159 168 177 225 239 252 246 246 246 252 257 266 263 269 271 273 278 279 283 286 291 292 280 272 280 281 283 286 289 292 290 290 292 293 290 290 289 281 269 261 267 257 230 241 260 264 266 258 261 264 268 267 266 264 258 253 240 246 249 244 239 227
155 157 161 162 166 159 171 171 161 159 153 160 163 169 198 234 215 226 239 245 239 253 262 267 271 269 269 273 275 279 281 287 290 289 290 286 288 288 282 278 279 287 289 288 289 291 293 290 293 292 296 295 287 286 281 227 249 266 270 271 262 263 270 273 268 262 252 249 242 239 244 242 240 234
155 163 165 168 173 169 178 162 166 161 150 146 146 185 212 242 230 227 251 278 276 268 263 266 268 274 275 277 280 278 282 287 289 291 289 289 287 287 289 287 283 281 285 283 285 290 290 290 288 288 293 294 291 288 284 267 250 254 261 269 271 263 271 273 273 272 262 248 240 236 241 242 240 234
163 156 164 168 173 178 170 148 150 157 158 165 176 199 227 240 267 268 274 271 270 271 277 279 274 274 271 274 284 288 286 279 280 286 290 294 294 296 293 291 293 294 292 290 292 286 287 286 288 284 280 282 290 290 295 293 256 241 251 265 272 272 267 271 273 273 271 257 245 240 236 241 239 240
154 163 167 168 167 152 150 169 158 162 149 137 175 199 220 239 248 268 265 261 265 274 278 273 265 262 271 277 281 284 292 296 293 290 291 295 292 292 295 297 297 297 299 296 295 288 284 282 280 280 279 283 283 285 287 290 289 282 253 255 264 270 262 263 267 266 275 283 283 268 246 240 244 238
152 155 164 158 168 148 137 153 165 161 148 157 182 196 205 238 244 246 260 262 267 270 264 260 266 278 280 281 281 281 277 276 282 291 293 294 293 290 289 294 296 299 299 297 299 295 291 283 284 283 287 282 280 281 279 278 279 280 276 265 254 256 259 256 256 260 268 266 269 277 268 246 236 229
146 157 163 163 144 138 142 153 155 147 146 180 186 206 222 225 247 253 253 260 252 250 264 273 281 276 276 278 278 280 285 289 284 285 286 286 289 291 293 298 298 297 298 295 296 294 289 287 287 291 289 285 283 282 278 276 274 281 281 277 264 256 255 249 251 253 254 257 263 263 265 259 247 235
153 159 157 155 154 144 141 140 139 138 158 186 189 206 217 235 232 266 273 285 291 286 271 268 268 273 274 274 277 280 278 285 290 291 293 290 294 298 300 300 296 298 298 295 296 294 293 290 290 285 278 281 283 283 277 276 281 286 284 285 283 265 258 255 251 251 250 250 248 248 250 258 252 246
157 154 149 137 135 128 146 141 147 174 184 180 192 211 217 240 254 271 277 270 262 261 261 266 270 271 273 274 275 277 282 285 288 290 291 290 295 298 302 299 295 294 292 289 289 290 292 293 291 289 286 278 275 274 277 276 274 278 282 287 285 286 269 256 255 253 252 249 246 245 245 246 252 241
156 157 124 131 139 150 133 152 159 177 181 188 199 200 210 238 258 258 252 257 262 264 269 270 273 274 277 279 279 282 282 287 292 293 294 298 301 298 294 296 295 293 294 289 292 293 291 291 292 295 293 292 284 282 277 281 278 278 281 280 283 284 280 278 261 259 257 254 248 245 243 242 243 250
148 150 135 137 134 130 132 149 170 181 184 194 193 196 218 234 255 262 262 254 259 262 269 272 272 275 275 282 288 293 296 298 296 287 288 293 296 296 294 293 297 296 294 296 298 298 299 291 289 284 278 280 284 283 284 281 282 286 281 278 279 276 277 280 276 268 263 266 251 243 242 242 241 241